loading
|

TITAN 3C TRANSTAGE DEB, 1716

Orbit data source: Space-Track

TITAN 3C TRANSTAGE DEB, 1716 is space debris in LEO originally from a launch on Fri, 15 Oct 1965 UTC launched from the Air Force Eastern Test Range (AFETR). Debris objects in space refer to the collection of defunct objects orbiting the Earth. Examples of debris include non-operational satellites, rocket bodies, and fragments generated from explosions, collisions, or faulty payload assembly.

Loading next visibility...
Loading greatness...
TITAN 3C TRANSTAGE DEB details
Identifier
1716, 1965-082BX
Orbit
LEO
Last TLE update12 hours ago
Origin
Flag of USUSAF SSD (US)
ManufacturerUnknown
MissionSpacecraft
Bus & MotorUnknown bus, Unknown motor
MassUnknown
Launch date (UTC)
1965-10-15 (59 years ago)
Launch vehicleUnknown
Launch site
Air Force Eastern Test Range (AFETR)
Object type
Payload
Rocket body
Debris
Shape & HBRUnknown
Radar Cross Section1.900 m², Large (>1 m²)

Expand to show TLE details & history

TLE from 12 hours ago
0 TITAN 3C TRANSTAGE DEB
1 01716U 65082BX  24278.48362322  .00004212  00000-0  92123-3 0  9998
2 01716  32.1917 345.9863 0039143 175.0271 185.0768 14.56156075117904
Epoch: 2024-10-04T11:36Z
Definitive object data (Epoch: 2024-10-04T11:36:25.046Z)
Latitude0.00002°
Longitude158.22834°
Altitude731.886 km
Speed7.477 km/s
True Right ascension23h 03m 56s
True Declination0° 00' 00"
Sunlit
Object was in full shadow at TLE epoch
Predictive object data (real-time)
Latitude7.15118°
Longitude-36.19844°
Altitude676.611 km
Speed7.536 km/s
Apparent Right ascension08h 23m 04s
Apparent Declination-17° 30' 17"
Sunlit
Object is in daylight
Predictive observer data (real-time)
Local Sidereal Time17:49:17
Azimuth292.745° NW
Elevation-49.987°
Doppler factor1
Orbital elements
Apogee736.931 km
Perigee681.447 km
Semi-major axis7,087.326 km
Eccentricity0.0039143
Inclination32.1917°
RAAN345.9863°
Arg. of periapsis175.0271°
True anomaly185.0373°
Mean anomaly185.0768°
Eccentric anomaly185.05703°
Mean motion3.63764 °/min
BSTAR0.00092123
Period98.97 mins
No data available

TITAN 3C TRANSTAGE DEB Visibility forecast

Observer location: 39.9160978°, -105.1181434

TITAN 3C TRANSTAGE DEB is not visible in the next 10 days
Span
Click to sort rows by Start time (UTC) header in descending order
Start Az.
Max El. time (UTC)
Max El. Az.
Max El.
End time (UTC)
End Az.